This is the latest recevied weather packets stored in our database for station/object SP9MUF-14. If no packets are shown the sender has not sent any weather packets the latest 10 day(s).
| Time | Temp. | Humidity | Pressure | Rain* | Wind** | Luminosity | Snow |
|---|---|---|---|---|---|---|---|
| 1787665071 | 13.89° C | 91% | 1019 hPa | 0 mm | - | 29 W/m² | - |
| 1787664768 | 15° C | 91% | 1019.1 hPa | 0 mm | - | 28 W/m² | - |
| 1787664466 | 15° C | 91% | 1016.7 hPa | 0 mm | - | 31 W/m² | - |
| 1787664164 | 15° C | 91% | 1019.2 hPa | 0 mm | - | 33 W/m² | - |
| 1787663861 | 15° C | 91% | 1019.2 hPa | 0 mm | - | 31 W/m² | - |
| 1787663573 | 15° C | 91% | 1019.1 hPa | 0 mm | - | 36 W/m² | - |
| 1787663256 | 15° C | 91% | 1019.1 hPa | 0 mm | - | 36 W/m² | - |
| 1787662954 | 15° C | 91% | 1019.1 hPa | 0 mm | - | 36 W/m² | - |
| 1787662652 | 15° C | 91% | 1019.1 hPa | 0.25 mm | - | 42 W/m² | - |
| 1787662349 | 15° C | 91% | 1019.1 hPa | 0.25 mm | - | 38 W/m² | - |
| 1787661140 | 15° C | 91% | 1019.1 hPa | 0.25 mm | - | 63 W/m² | - |
| 1787659931 | 13.89° C | 91% | 1019.2 hPa | 0 mm | - | 41 W/m² | - |
| 1787659025 | 13.89° C | 90% | 1019.5 hPa | 0.25 mm | - | 24 W/m² | - |
| 1787658723 | 13.89° C | 90% | 1019.5 hPa | 0.25 mm | - | 28 W/m² | - |
| 1787658118 | 13.89° C | 90% | 1019.5 hPa | 0.76 mm | - | 40 W/m² | - |
| 1787657211 | 15° C | 90% | 1019.7 hPa | 0.76 mm | - | 61 W/m² | - |
| 1787656909 | 13.89° C | 90% | 1019.7 hPa | 0.25 mm | - | 58 W/m² | - |
| 1787656607 | 13.89° C | 90% | 1019.8 hPa | 0.25 mm | - | 53 W/m² | - |
| 1787656304 | 13.89° C | 89% | 1019.9 hPa | 0.25 mm | - | 49 W/m² | - |
| 1787656002 | 13.89° C | 87% | 1020 hPa | 0.51 mm | - | 51 W/m² | - |
| 1787655700 | 15° C | 87% | 1016.5 hPa | 0.25 mm | - | 49 W/m² | - |
| 1787655397 | 15° C | 87% | 1016.5 hPa | 0.25 mm | - | 49 W/m² | - |
| 1787655095 | 15° C | 87% | 1019.9 hPa | 0.76 mm | - | 42 W/m² | - |
| 1787654793 | 13.89° C | 87% | 1019.8 hPa | 0.51 mm | - | 40 W/m² | - |
| 1787654491 | 13.89° C | 87% | 1019.5 hPa | 0.51 mm | - | 40 W/m² | - |
* Rain latest hour (hover to see other rain measurements)
** Current wind speed in m/s (hover to see current wind gust speed)